This is the latest recevied weather packets stored in our database for station/object N8AMF. If no packets are shown the sender has not sent any weather packets the latest 1 day(s).
| Time | Temp. | Humidity | Pressure | Rain* | Wind** | Luminosity | Snow |
|---|---|---|---|---|---|---|---|
| 1778003638 | 17.22° C | 73% | 1006.9 hPa | 0 mm | 2.24 m/s, 228° | 103 W/m² | - |
| 1778003334 | 17.22° C | 73% | 1006.7 hPa | 0 mm | 1.79 m/s, 358° | 117 W/m² | - |
| 1778003032 | 17.78° C | 72% | 1006.9 hPa | 0 mm | 0.89 m/s, 33° | 93 W/m² | - |
| 1778002728 | 17.78° C | 72% | 1006.6 hPa | 0 mm | 1.34 m/s, 273° | 112 W/m² | - |
| 1778002425 | 17.78° C | 70% | 1006.6 hPa | 0 mm | 1.34 m/s, 249° | 225 W/m² | - |
| 1778002122 | 18.33° C | 71% | 1006.6 hPa | 0 mm | 1.34 m/s, 213° | 296 W/m² | - |
| 1778001819 | 17.78° C | 70% | 1006.6 hPa | 0 mm | 0.89 m/s, 237° | 343 W/m² | - |
| 1778001519 | 17.78° C | 71% | 1006.5 hPa | 0 mm | 0.89 m/s, 203° | 242 W/m² | - |
| 1778001216 | 17.78° C | 71% | 1006.7 hPa | 0 mm | 1.34 m/s, 207° | 459 W/m² | - |
| 1778000913 | 17.22° C | 72% | 1006.5 hPa | 0 mm | 1.79 m/s, 212° | 220 W/m² | - |
| 1778000610 | 17.78° C | 71% | 1006.5 hPa | 0 mm | 1.79 m/s, 213° | 104 W/m² | - |
| 1778000305 | 17.78° C | 71% | 1006.6 hPa | 0 mm | 0 m/s | 163 W/m² | - |
| 1778000001 | 17.78° C | 71% | 1006.6 hPa | 0 mm | 2.24 m/s, 229° | 169 W/m² | - |
| 1777999697 | 17.78° C | 70% | 1006.5 hPa | 0 mm | 1.79 m/s, 353° | 211 W/m² | - |
| 1777999394 | 17.78° C | 69% | 1006.6 hPa | 0 mm | 1.34 m/s, 232° | 127 W/m² | - |
| 1777999092 | 18.33° C | 68% | 1006.4 hPa | 0 mm | 2.24 m/s, 245° | 175 W/m² | - |
| 1777998790 | 18.33° C | 67% | 1006.4 hPa | 0 mm | 2.24 m/s, 214° | 282 W/m² | - |
| 1777998488 | 18.33° C | 68% | 1006.3 hPa | 0 mm | 0.89 m/s, 224° | 137 W/m² | - |
| 1777998184 | 18.33° C | 67% | 1006.4 hPa | 0 mm | 1.34 m/s, 212° | 114 W/m² | - |
| 1777997882 | 18.33° C | 67% | 1006.3 hPa | 0 mm | 1.79 m/s, 4° | 120 W/m² | - |
| 1777997579 | 18.33° C | 67% | 1006.3 hPa | 0 mm | 1.34 m/s, 169° | 101 W/m² | - |
| 1777997276 | 18.33° C | 66% | 1006.5 hPa | 0 mm | 0 m/s | 101 W/m² | - |
| 1777996974 | 18.33° C | 66% | 1006.4 hPa | 0 mm | 1.34 m/s, 214° | 76 W/m² | - |
| 1777996670 | 18.89° C | 65% | 1006.1 hPa | 0 mm | 0.89 m/s, 210° | 67 W/m² | - |
| 1777996366 | 18.89° C | 64% | 1006.2 hPa | 0 mm | 1.34 m/s, 241° | 92 W/m² | - |
* Rain latest hour (hover to see other rain measurements)
** Current wind speed in m/s (hover to see current wind gust speed)